contact: severine.martini@mio.osupytheas.fr, dominique.lefevre@mio.osupytheas.fr
Project:EMSO Ligure-ouest http://www.emso-fr.org/EMSO-France
Sensor Microcat Sea-Bird SBE37 SMP,  Serial 57510 
DOI : "https://doi.org/10.17882/97948" 
Title:EMSO Ligure Ouest : Data Bathybot capteur Microcat - deploiement 2023-04-28
Datetime,Profondeur,Latitude,Longitude,Temperature,Conductivite,Pression,Salinite
time,m,degree_north,degree_east,degree_C,S/m,db,PSU 
2024-02-04T00:00:49,2420,42.8014,5.9826,13.2979,4.59911,2453.627,38.4871
2024-02-04T00:03:49,2420,42.8014,5.9826,13.2979,4.59908,2453.627,38.4869
2024-02-04T00:06:49,2420,42.8014,5.9826,13.2982,4.59908,2453.627,38.4866
2024-02-04T00:09:49,2420,42.8014,5.9826,13.2982,4.59909,2453.604,38.4867
2024-02-04T00:12:49,2420,42.8014,5.9826,13.2985,4.59911,2453.604,38.4867
2024-02-04T00:15:49,2420,42.8014,5.9826,13.2991,4.59911,2453.604,38.4860
2024-02-04T00:18:49,2420,42.8014,5.9826,13.2981,4.59911,2453.627,38.4870
2024-02-04T00:21:49,2420,42.8014,5.9826,13.2979,4.59911,2453.627,38.4871
2024-02-04T00:24:49,2420,42.8014,5.9826,13.2982,4.59912,2453.627,38.4870
2024-02-04T00:27:49,2420,42.8014,5.9826,13.2986,4.59912,2453.627,38.4865
2024-02-04T00:30:49,2420,42.8014,5.9826,13.2985,4.59916,2453.619,38.4870
2024-02-04T00:33:49,2420,42.8014,5.9826,13.2987,4.59916,2453.612,38.4868
2024-02-04T00:36:49,2420,42.8014,5.9826,13.2987,4.59912,2453.619,38.4865
2024-02-04T00:39:49,2420,42.8014,5.9826,13.2985,4.59920,2453.567,38.4874
2024-02-04T00:42:49,2420,42.8014,5.9826,13.2987,4.59915,2453.649,38.4867
2024-02-04T00:45:49,2420,42.8014,5.9826,13.2982,4.59910,2453.604,38.4868
2024-02-04T00:48:49,2420,42.8014,5.9826,13.2988,4.59912,2453.612,38.4864
2024-02-04T00:51:49,2420,42.8014,5.9826,13.2986,4.59910,2453.627,38.4863
2024-02-04T00:54:49,2420,42.8014,5.9826,13.2987,4.59908,2453.627,38.4861
2024-02-04T00:57:49,2420,42.8014,5.9826,13.2983,4.59911,2453.604,38.4868
2024-02-04T01:00:49,2420,42.8014,5.9826,13.2988,4.59908,2453.627,38.4859
2024-02-04T01:03:49,2420,42.8014,5.9826,13.2986,4.59910,2453.649,38.4863
2024-02-04T01:06:49,2420,42.8014,5.9826,13.2987,4.59917,2453.590,38.4870
2024-02-04T01:09:49,2420,42.8014,5.9826,13.2979,4.59916,2453.604,38.4876
2024-02-04T01:12:49,2420,42.8014,5.9826,13.2985,4.59911,2453.612,38.4866
2024-02-04T01:15:49,2420,42.8014,5.9826,13.2985,4.59918,2453.649,38.4873
2024-02-04T01:18:49,2420,42.8014,5.9826,13.2987,4.59921,2453.604,38.4873
2024-02-04T01:21:49,2420,42.8014,5.9826,13.2981,4.59918,2453.649,38.4876
2024-02-04T01:24:49,2420,42.8014,5.9826,13.2983,4.59914,2453.627,38.4870
2024-02-04T01:27:49,2420,42.8014,5.9826,13.2987,4.59914,2453.627,38.4867
2024-02-04T01:30:49,2420,42.8014,5.9826,13.2989,4.59915,2453.627,38.4865
2024-02-04T01:33:49,2420,42.8014,5.9826,13.2986,4.59915,2453.649,38.4868
2024-02-04T01:36:49,2420,42.8014,5.9826,13.2987,4.59917,2453.627,38.4870
2024-02-04T01:39:49,2420,42.8014,5.9826,13.2989,4.59921,2453.627,38.4871
2024-02-04T01:42:49,2420,42.8014,5.9826,13.2981,4.59920,2453.627,38.4878
2024-02-04T01:45:49,2420,42.8014,5.9826,13.2985,4.59916,2453.627,38.4870
2024-02-04T01:48:49,2420,42.8014,5.9826,13.2980,4.59921,2453.627,38.4880
2024-02-04T01:51:49,2420,42.8014,5.9826,13.2988,4.59922,2453.604,38.4873
2024-02-04T01:54:50,2420,42.8014,5.9826,13.2982,4.59917,2453.604,38.4875
2024-02-04T01:57:49,2420,42.8014,5.9826,13.2986,4.59920,2453.604,38.4873
2024-02-04T02:00:49,2420,42.8014,5.9826,13.2985,4.59914,2453.604,38.4869
2024-02-04T02:03:49,2420,42.8014,5.9826,13.2985,4.59917,2453.627,38.4871
2024-02-04T02:06:49,2420,42.8014,5.9826,13.2986,4.59926,2453.627,38.4879
2024-02-04T02:09:49,2420,42.8014,5.9826,13.2982,4.59923,2453.641,38.4880
2024-02-04T02:12:49,2420,42.8014,5.9826,13.2986,4.59920,2453.612,38.4874
2024-02-04T02:15:49,2420,42.8014,5.9826,13.2990,4.59919,2453.627,38.4868
2024-02-04T02:18:49,2420,42.8014,5.9826,13.2985,4.59928,2453.627,38.4882
2024-02-04T02:21:49,2420,42.8014,5.9826,13.2991,4.59932,2453.627,38.4879
2024-02-04T02:24:49,2420,42.8014,5.9826,13.2986,4.59915,2453.627,38.4869
2024-02-04T02:27:49,2420,42.8014,5.9826,13.2988,4.59940,2453.664,38.4890
2024-02-04T02:30:49,2420,42.8014,5.9826,13.2988,4.59928,2453.604,38.4879
2024-02-04T02:33:49,2420,42.8014,5.9826,13.2991,4.59943,2453.664,38.4890
2024-02-04T02:36:49,2420,42.8014,5.9826,13.2988,4.59920,2453.649,38.4871
2024-02-04T02:39:49,2420,42.8014,5.9826,13.2991,4.59917,2453.627,38.4865
2024-02-04T02:42:49,2420,42.8014,5.9826,13.2986,4.59922,2453.649,38.4875
2024-02-04T02:45:49,2420,42.8014,5.9826,13.2985,4.59920,2453.649,38.4874
2024-02-04T02:48:49,2420,42.8014,5.9826,13.2983,4.59935,2453.627,38.4890
2024-02-04T02:51:49,2420,42.8014,5.9826,13.2983,4.59940,2453.627,38.4895
2024-02-04T02:54:49,2420,42.8014,5.9826,13.2985,4.59932,2453.627,38.4886
2024-02-04T02:57:49,2420,42.8014,5.9826,13.2982,4.59932,2453.635,38.4889
2024-02-04T03:00:49,2420,42.8014,5.9826,13.2998,4.59947,2453.649,38.4886
2024-02-04T03:03:49,2420,42.8014,5.9826,13.2988,4.59928,2453.582,38.4880
2024-02-04T03:06:49,2420,42.8014,5.9826,13.2983,4.59937,2453.627,38.4892
2024-02-04T03:09:49,2420,42.8014,5.9826,13.2996,4.59950,2453.582,38.4892
2024-02-04T03:12:49,2420,42.8014,5.9826,13.2984,4.59946,2453.559,38.4900
2024-02-04T03:15:49,2420,42.8014,5.9826,13.2987,4.59964,2453.567,38.4914
2024-02-04T03:18:49,2420,42.8014,5.9826,13.2989,4.59962,2453.627,38.4910
2024-02-04T03:21:49,2420,42.8014,5.9826,13.3018,4.59965,2453.627,38.4884
2024-02-04T03:24:49,2420,42.8014,5.9826,13.2987,4.59972,2453.649,38.4921
2024-02-04T03:27:49,2420,42.8014,5.9826,13.2990,4.59956,2453.627,38.4903
2024-02-04T03:30:49,2420,42.8014,5.9826,13.2987,4.59971,2453.627,38.4921
2024-02-04T03:33:49,2420,42.8014,5.9826,13.2991,4.60138,2453.664,38.5074
2024-02-04T03:36:49,2420,42.8014,5.9826,13.2998,4.59977,2453.627,38.4914
2024-02-04T03:39:49,2420,42.8014,5.9826,13.3002,4.59983,2453.641,38.4917
2024-02-04T03:42:49,2420,42.8014,5.9826,13.3000,4.60038,2453.627,38.4971
2024-02-04T03:45:49,2420,42.8014,5.9826,13.2996,4.59972,2453.627,38.4913
2024-02-04T03:48:49,2420,42.8014,5.9826,13.3001,4.59988,2453.627,38.4922
2024-02-04T03:51:49,2420,42.8014,5.9826,13.3005,4.60010,2453.627,38.4939
2024-02-04T03:54:49,2420,42.8014,5.9826,13.3011,4.60028,2453.627,38.4950
2024-02-04T03:57:49,2420,42.8014,5.9826,13.2999,4.59967,2453.627,38.4905
2024-02-04T04:00:49,2420,42.8014,5.9826,13.3006,4.59996,2453.627,38.4925
2024-02-04T04:03:49,2420,42.8014,5.9826,13.3012,4.60004,2453.627,38.4926
2024-02-04T04:06:49,2420,42.8014,5.9826,13.3019,4.60039,2453.627,38.4953
2024-02-04T04:09:49,2420,42.8014,5.9826,13.3083,4.60021,2453.627,38.4873
2024-02-04T04:12:49,2420,42.8014,5.9826,13.3060,4.60003,2453.619,38.4878
2024-02-04T04:15:49,2420,42.8014,5.9826,13.3015,4.60008,2453.604,38.4928
2024-02-04T04:18:49,2420,42.8014,5.9826,13.3004,4.59977,2453.641,38.4908
2024-02-04T04:21:49,2420,42.8014,5.9826,13.3008,4.59948,2453.627,38.4878
2024-02-04T04:24:49,2420,42.8014,5.9826,13.2995,4.59928,2453.627,38.4871
2024-02-04T04:27:50,2420,42.8014,5.9826,13.2996,4.59959,2453.641,38.4900
2024-02-04T04:30:49,2420,42.8014,5.9826,13.2997,4.59972,2453.604,38.4912
2024-02-04T04:33:49,2420,42.8014,5.9826,13.3023,4.59926,2453.627,38.4842
2024-02-04T04:36:49,2420,42.8014,5.9826,13.2991,4.59922,2453.627,38.4870
2024-02-04T04:39:49,2420,42.8014,5.9826,13.2993,4.59926,2453.649,38.4871
2024-02-04T04:42:49,2420,42.8014,5.9826,13.2991,4.59990,2453.604,38.4934
2024-02-04T04:45:49,2420,42.8014,5.9826,13.2995,4.59973,2453.664,38.4914
2024-02-04T04:48:49,2420,42.8014,5.9826,13.2998,4.59959,2453.612,38.4898
2024-02-04T04:51:49,2420,42.8014,5.9826,13.3026,4.60021,2453.641,38.4929
2024-02-04T04:54:49,2420,42.8014,5.9826,13.3043,4.59987,2453.627,38.4880
2024-02-04T04:57:49,2420,42.8014,5.9826,13.3006,4.59971,2453.619,38.4902
2024-02-04T05:00:49,2420,42.8014,5.9826,13.3016,4.59928,2453.604,38.4852
2024-02-04T05:03:49,2420,42.8014,5.9826,13.3006,4.59919,2453.604,38.4852
2024-02-04T05:06:49,2420,42.8014,5.9826,13.2991,4.59917,2453.627,38.4866
2024-02-04T05:09:49,2420,42.8014,5.9826,13.2991,4.59916,2453.627,38.4865
2024-02-04T05:12:49,2420,42.8014,5.9826,13.2987,4.59916,2453.604,38.4868
2024-02-04T05:15:49,2420,42.8014,5.9826,13.2988,4.59914,2453.604,38.4866
2024-02-04T05:18:49,2420,42.8014,5.9826,13.2990,4.59915,2453.627,38.4865
2024-02-04T05:21:49,2420,42.8014,5.9826,13.2988,4.59917,2453.649,38.4868
2024-02-04T05:24:49,2420,42.8014,5.9826,13.2996,4.59911,2453.604,38.4855
2024-02-04T05:27:49,2420,42.8014,5.9826,13.2984,4.59911,2453.627,38.4867
2024-02-04T05:30:49,2420,42.8014,5.9826,13.2982,4.59917,2453.590,38.4875
2024-02-04T05:33:49,2420,42.8014,5.9826,13.2985,4.59923,2453.627,38.4878
2024-02-04T05:36:49,2420,42.8014,5.9826,13.2993,4.59910,2453.664,38.4857
2024-02-04T05:39:49,2420,42.8014,5.9826,13.3008,4.59909,2453.641,38.4841
2024-02-04T05:42:49,2420,42.8014,5.9826,13.2985,4.59908,2453.627,38.4863
2024-02-04T05:45:49,2420,42.8014,5.9826,13.2979,4.59912,2453.627,38.4872
2024-02-04T05:48:49,2420,42.8014,5.9826,13.2984,4.59915,2453.641,38.4870
2024-02-04T05:51:49,2420,42.8014,5.9826,13.2985,4.59923,2453.604,38.4878
2024-02-04T05:54:49,2420,42.8014,5.9826,13.2989,4.59928,2453.604,38.4878
2024-02-04T05:57:49,2420,42.8014,5.9826,13.2997,4.59948,2453.619,38.4889
2024-02-04T06:00:49,2420,42.8014,5.9826,13.2988,4.59971,2453.641,38.4919
2024-02-04T06:03:49,2420,42.8014,5.9826,13.2996,4.59928,2453.567,38.4872
2024-02-04T06:06:49,2420,42.8014,5.9826,13.2990,4.59959,2453.604,38.4906
2024-02-04T06:09:49,2420,42.8014,5.9826,13.2993,4.59946,2453.627,38.4890
2024-02-04T06:12:49,2420,42.8014,5.9826,13.2984,4.59920,2453.627,38.4875
2024-02-04T06:15:49,2420,42.8014,5.9826,13.2985,4.59918,2453.627,38.4872
2024-02-04T06:18:49,2420,42.8014,5.9826,13.2981,4.59919,2453.590,38.4877
2024-02-04T06:21:49,2420,42.8014,5.9826,13.2979,4.59910,2453.627,38.4870
2024-02-04T06:24:49,2420,42.8014,5.9826,13.2982,4.59908,2453.627,38.4866
2024-02-04T06:27:49,2420,42.8014,5.9826,13.2981,4.59911,2453.590,38.4870
2024-02-04T06:30:49,2420,42.8014,5.9826,13.2980,4.59909,2453.604,38.4869
2024-02-04T06:33:49,2420,42.8014,5.9826,13.2983,4.59916,2453.627,38.4872
2024-02-04T06:36:49,2420,42.8014,5.9826,13.2979,4.59913,2453.612,38.4873
2024-02-04T06:39:49,2420,42.8014,5.9826,13.2980,4.59908,2453.604,38.4868
2024-02-04T06:42:49,2420,42.8014,5.9826,13.2985,4.59909,2453.627,38.4864
2024-02-04T06:45:49,2420,42.8014,5.9826,13.2981,4.59917,2453.627,38.4876
2024-02-04T06:48:49,2420,42.8014,5.9826,13.2984,4.59914,2453.627,38.4869
2024-02-04T06:51:49,2420,42.8014,5.9826,13.2983,4.59926,2453.604,38.4881
2024-02-04T06:54:50,2420,42.8014,5.9826,13.2982,4.59915,2453.612,38.4873
2024-02-04T06:57:49,2420,42.8014,5.9826,13.2991,4.59928,2453.627,38.4876
2024-02-04T07:00:49,2420,42.8014,5.9826,13.2988,4.59921,2453.582,38.4873
2024-02-04T07:03:49,2420,42.8014,5.9826,13.2993,4.59910,2453.627,38.4857
2024-02-04T07:06:49,2420,42.8014,5.9826,13.2989,4.59909,2453.604,38.4860
2024-02-04T07:09:49,2420,42.8014,5.9826,13.2985,4.59940,2453.627,38.4894
2024-02-04T07:12:49,2420,42.8014,5.9826,13.2991,4.59926,2453.619,38.4873
2024-02-04T07:15:49,2420,42.8014,5.9826,13.2989,4.59926,2453.627,38.4876
2024-02-04T07:18:49,2420,42.8014,5.9826,13.2984,4.59914,2453.604,38.4870
2024-02-04T07:21:49,2420,42.8014,5.9826,13.2986,4.59914,2453.627,38.4868
2024-02-04T07:24:49,2420,42.8014,5.9826,13.2985,4.59919,2453.596,38.4873
2024-02-04T07:27:49,2420,42.8014,5.9826,13.2989,4.59920,2453.582,38.4870
2024-02-04T07:30:49,2420,42.8014,5.9826,13.2983,4.59915,2453.596,38.4872
2024-02-04T07:33:49,2420,42.8014,5.9826,13.2984,4.59914,2453.604,38.4870
2024-02-04T07:36:49,2420,42.8014,5.9826,13.2981,4.59917,2453.604,38.4875
2024-02-04T07:39:49,2420,42.8014,5.9826,13.2998,4.59908,2453.604,38.4850
2024-02-04T07:42:49,2420,42.8014,5.9826,13.2984,4.59908,2453.582,38.4864
2024-02-04T07:45:49,2420,42.8014,5.9826,13.2984,4.59914,2453.627,38.4870
2024-02-04T07:48:49,2420,42.8014,5.9826,13.2979,4.59917,2453.590,38.4877
2024-02-04T07:51:49,2420,42.8014,5.9826,13.2983,4.59919,2453.604,38.4875
2024-02-04T07:54:49,2420,42.8014,5.9826,13.2982,4.59913,2453.604,38.4871
2024-02-04T07:57:49,2420,42.8014,5.9826,13.2982,4.59912,2453.604,38.4870
2024-02-04T08:00:49,2420,42.8014,5.9826,13.2983,4.59909,2453.627,38.4866
2024-02-04T08:03:49,2420,42.8014,5.9826,13.2983,4.59913,2453.604,38.4869
2024-02-04T08:06:49,2420,42.8014,5.9826,13.2981,4.59911,2453.582,38.4870
2024-02-04T08:09:49,2420,42.8014,5.9826,13.2982,4.59908,2453.582,38.4867
2024-02-04T08:12:49,2420,42.8014,5.9826,13.2980,4.59909,2453.604,38.4869
2024-02-04T08:15:49,2420,42.8014,5.9826,13.2981,4.59919,2453.604,38.4877
2024-02-04T08:18:49,2420,42.8014,5.9826,13.2979,4.59911,2453.582,38.4872
2024-02-04T08:21:49,2420,42.8014,5.9826,13.2982,4.59909,2453.582,38.4867
2024-02-04T08:24:49,2420,42.8014,5.9826,13.2978,4.59911,2453.604,38.4872
2024-02-04T08:27:49,2420,42.8014,5.9826,13.2980,4.59911,2453.604,38.4871
2024-02-04T08:30:49,2420,42.8014,5.9826,13.2982,4.59908,2453.590,38.4866
2024-02-04T08:33:49,2420,42.8014,5.9826,13.2982,4.59910,2453.604,38.4868
2024-02-04T08:36:49,2420,42.8014,5.9826,13.2978,4.59922,2453.627,38.4883
2024-02-04T08:39:49,2420,42.8014,5.9826,13.2980,4.59908,2453.604,38.4868
2024-02-04T08:42:49,2420,42.8014,5.9826,13.2986,4.59912,2453.590,38.4866
2024-02-04T08:45:49,2420,42.8014,5.9826,13.2978,4.59911,2453.582,38.4872
2024-02-04T08:48:49,2420,42.8014,5.9826,13.2981,4.59914,2453.604,38.4872
2024-02-04T08:51:49,2420,42.8014,5.9826,13.2982,4.59911,2453.619,38.4869
2024-02-04T08:54:49,2420,42.8014,5.9826,13.2984,4.59910,2453.649,38.4866
2024-02-04T08:57:49,2420,42.8014,5.9826,13.2980,4.59908,2453.604,38.4868
2024-02-04T09:00:49,2420,42.8014,5.9826,13.2987,4.59912,2453.604,38.4865
2024-02-04T09:03:49,2420,42.8014,5.9826,13.2981,4.59917,2453.582,38.4875
2024-02-04T09:06:49,2420,42.8014,5.9826,13.2979,4.59922,2453.582,38.4882
2024-02-04T09:09:49,2420,42.8014,5.9826,13.2982,4.59911,2453.582,38.4869
2024-02-04T09:12:49,2420,42.8014,5.9826,13.2983,4.59910,2453.604,38.4867
2024-02-04T09:15:49,2420,42.8014,5.9826,13.2978,4.59911,2453.619,38.4873
2024-02-04T09:18:49,2420,42.8014,5.9826,13.2982,4.59908,2453.567,38.4867
2024-02-04T09:21:49,2420,42.8014,5.9826,13.2980,4.59910,2453.604,38.4870
2024-02-04T09:24:49,2420,42.8014,5.9826,13.2983,4.59916,2453.627,38.4872
2024-02-04T09:27:49,2420,42.8014,5.9826,13.2980,4.59912,2453.604,38.4872
2024-02-04T09:30:49,2420,42.8014,5.9826,13.2985,4.59914,2453.627,38.4869
2024-02-04T09:33:49,2420,42.8014,5.9826,13.2980,4.59910,2453.619,38.4870
2024-02-04T09:36:49,2420,42.8014,5.9826,13.2979,4.59914,2453.582,38.4874
2024-02-04T09:39:49,2420,42.8014,5.9826,13.2985,4.59911,2453.604,38.4866
2024-02-04T09:42:49,2420,42.8014,5.9826,13.2991,4.59913,2453.604,38.4862
2024-02-04T09:45:49,2420,42.8014,5.9826,13.2985,4.59912,2453.612,38.4867
2024-02-04T09:48:49,2420,42.8014,5.9826,13.2983,4.59909,2453.612,38.4866
2024-02-04T09:51:49,2420,42.8014,5.9826,13.2988,4.59910,2453.627,38.4861
2024-02-04T09:54:49,2420,42.8014,5.9826,13.2986,4.59911,2453.627,38.4865
2024-02-04T09:57:49,2420,42.8014,5.9826,13.2985,4.59907,2453.604,38.4862
2024-02-04T10:00:49,2420,42.8014,5.9826,13.2985,4.59908,2453.627,38.4863
2024-02-04T10:03:49,2420,42.8014,5.9826,13.2986,4.59910,2453.649,38.4863
2024-02-04T10:06:49,2420,42.8014,5.9826,13.2990,4.59908,2453.604,38.4858
2024-02-04T10:09:49,2420,42.8014,5.9826,13.2984,4.59907,2453.627,38.4863
2024-02-04T10:12:49,2420,42.8014,5.9826,13.2980,4.59906,2453.604,38.4866
2024-02-04T10:15:49,2420,42.8014,5.9826,13.2990,4.59907,2453.627,38.4857
2024-02-04T10:18:49,2420,42.8014,5.9826,13.2984,4.59907,2453.627,38.4863
2024-02-04T10:21:49,2420,42.8014,5.9826,13.2983,4.59906,2453.627,38.4863
2024-02-04T10:24:49,2420,42.8014,5.9826,13.2982,4.59906,2453.627,38.4865
2024-02-04T10:27:49,2420,42.8014,5.9826,13.2990,4.59907,2453.612,38.4857
2024-02-04T10:30:49,2420,42.8014,5.9826,13.2986,4.59907,2453.649,38.4860
2024-02-04T10:33:49,2420,42.8014,5.9826,13.2988,4.59908,2453.627,38.4859
2024-02-04T10:36:49,2420,42.8014,5.9826,13.2985,4.59906,2453.627,38.4861
2024-02-04T10:39:49,2420,42.8014,5.9826,13.2979,4.59906,2453.627,38.4867
2024-02-04T10:42:49,2420,42.8014,5.9826,13.2979,4.59905,2453.627,38.4866
2024-02-04T10:45:49,2420,42.8014,5.9826,13.2985,4.59905,2453.627,38.4860
2024-02-04T10:48:49,2420,42.8014,5.9826,13.2978,4.59905,2453.627,38.4867
2024-02-04T10:51:49,2420,42.8014,5.9826,13.2979,4.59906,2453.627,38.4867
2024-02-04T10:54:49,2420,42.8014,5.9826,13.2978,4.59905,2453.649,38.4867
2024-02-04T10:57:49,2420,42.8014,5.9826,13.2982,4.59905,2453.641,38.4863
2024-02-04T11:00:49,2420,42.8014,5.9826,13.2981,4.59904,2453.649,38.4863
2024-02-04T11:03:49,2420,42.8014,5.9826,13.2983,4.59906,2453.604,38.4863
2024-02-04T11:06:49,2420,42.8014,5.9826,13.2979,4.59906,2453.649,38.4867
2024-02-04T11:09:49,2420,42.8014,5.9826,13.2981,4.59906,2453.627,38.4865
2024-02-04T11:12:49,2420,42.8014,5.9826,13.2986,4.59906,2453.627,38.4860
2024-02-04T11:15:49,2420,42.8014,5.9826,13.2987,4.59906,2453.627,38.4859
2024-02-04T11:18:49,2420,42.8014,5.9826,13.2994,4.59905,2453.641,38.4851
2024-02-04T11:21:49,2420,42.8014,5.9826,13.2986,4.59906,2453.649,38.4859
2024-02-04T11:24:49,2420,42.8014,5.9826,13.2981,4.59904,2453.627,38.4863
2024-02-04T11:27:49,2420,42.8014,5.9826,13.2985,4.59905,2453.627,38.4860
2024-02-04T11:30:49,2420,42.8014,5.9826,13.2988,4.59905,2453.627,38.4857
2024-02-04T11:33:49,2420,42.8014,5.9826,13.2983,4.59905,2453.657,38.4862
2024-02-04T11:36:49,2420,42.8014,5.9826,13.2986,4.59905,2453.649,38.4858
2024-02-04T11:39:49,2420,42.8014,5.9826,13.2986,4.59906,2453.649,38.4860
2024-02-04T11:42:49,2420,42.8014,5.9826,13.2978,4.59906,2453.672,38.4868
2024-02-04T11:45:49,2420,42.8014,5.9826,13.2979,4.59904,2453.649,38.4865
2024-02-04T11:48:49,2420,42.8014,5.9826,13.2982,4.59905,2453.612,38.4863
2024-02-04T11:51:49,2420,42.8014,5.9826,13.2981,4.59906,2453.627,38.4865
2024-02-04T11:54:49,2420,42.8014,5.9826,13.2985,4.59906,2453.627,38.4861
2024-02-04T11:57:49,2420,42.8014,5.9826,13.2982,4.59906,2453.649,38.4864
2024-02-04T12:00:49,2420,42.8014,5.9826,13.2984,4.59906,2453.649,38.4861
2024-02-04T12:03:49,2420,42.8014,5.9826,13.2980,4.59905,2453.627,38.4865
2024-02-04T12:06:49,2420,42.8014,5.9826,13.2985,4.59906,2453.649,38.4861
2024-02-04T12:09:49,2420,42.8014,5.9826,13.2984,4.59907,2453.649,38.4863
2024-02-04T12:12:49,2420,42.8014,5.9826,13.2985,4.59906,2453.612,38.4862
2024-02-04T12:15:49,2420,42.8014,5.9826,13.2988,4.59906,2453.604,38.4859
2024-02-04T12:18:49,2420,42.8014,5.9826,13.2981,4.59907,2453.657,38.4866
2024-02-04T12:21:49,2420,42.8014,5.9826,13.2982,4.59907,2453.627,38.4865
2024-02-04T12:24:49,2420,42.8014,5.9826,13.2982,4.59908,2453.627,38.4866
2024-02-04T12:27:49,2420,42.8014,5.9826,13.2986,4.59908,2453.649,38.4861
2024-02-04T12:30:49,2420,42.8014,5.9826,13.2978,4.59906,2453.649,38.4867
2024-02-04T12:33:49,2420,42.8014,5.9826,13.2986,4.59908,2453.672,38.4862
2024-02-04T12:36:49,2420,42.8014,5.9826,13.2980,4.59906,2453.672,38.4866
2024-02-04T12:39:49,2420,42.8014,5.9826,13.2983,4.59907,2453.627,38.4864
2024-02-04T12:42:49,2420,42.8014,5.9826,13.2984,4.59907,2453.657,38.4863
2024-02-04T12:45:49,2420,42.8014,5.9826,13.2980,4.59906,2453.649,38.4865
2024-02-04T12:48:49,2420,42.8014,5.9826,13.2979,4.59905,2453.649,38.4866
2024-02-04T12:51:49,2420,42.8014,5.9826,13.2979,4.59906,2453.604,38.4867
2024-02-04T12:54:49,2420,42.8014,5.9826,13.2979,4.59904,2453.604,38.4865
2024-02-04T12:57:49,2420,42.8014,5.9826,13.2979,4.59904,2453.635,38.4865
2024-02-04T13:00:50,2420,42.8014,5.9826,13.2977,4.59905,2453.627,38.4868
2024-02-04T13:03:49,2420,42.8014,5.9826,13.2986,4.59904,2453.627,38.4858
2024-02-04T13:06:49,2420,42.8014,5.9826,13.2979,4.59905,2453.627,38.4865
2024-02-04T13:09:49,2420,42.8014,5.9826,13.2981,4.59905,2453.635,38.4864
2024-02-04T13:12:49,2420,42.8014,5.9826,13.2978,4.59905,2453.627,38.4867
2024-02-04T13:15:49,2420,42.8014,5.9826,13.2975,4.59905,2453.664,38.4869
2024-02-04T13:18:49,2420,42.8014,5.9826,13.2985,4.59904,2453.590,38.4860
2024-02-04T13:21:49,2420,42.8014,5.9826,13.2984,4.59905,2453.649,38.4861
2024-02-04T13:24:49,2420,42.8014,5.9826,13.2979,4.59905,2453.649,38.4866
2024-02-04T13:27:49,2420,42.8014,5.9826,13.2982,4.59904,2453.649,38.4862
2024-02-04T13:30:49,2420,42.8014,5.9826,13.2982,4.59904,2453.627,38.4863
2024-02-04T13:33:49,2420,42.8014,5.9826,13.2982,4.59906,2453.649,38.4864
2024-02-04T13:36:49,2420,42.8014,5.9826,13.2982,4.59904,2453.649,38.4862
2024-02-04T13:39:49,2420,42.8014,5.9826,13.2986,4.59904,2453.657,38.4858
2024-02-04T13:42:49,2420,42.8014,5.9826,13.2982,4.59904,2453.649,38.4862
2024-02-04T13:45:49,2420,42.8014,5.9826,13.2978,4.59903,2453.627,38.4865
2024-02-04T13:48:49,2420,42.8014,5.9826,13.2981,4.59904,2453.649,38.4863
2024-02-04T13:51:49,2420,42.8014,5.9826,13.2980,4.59906,2453.649,38.4865
2024-02-04T13:54:49,2420,42.8014,5.9826,13.2981,4.59903,2453.649,38.4862
2024-02-04T13:57:49,2420,42.8014,5.9826,13.2979,4.59903,2453.664,38.4864
2024-02-04T14:00:49,2420,42.8014,5.9826,13.2982,4.59905,2453.649,38.4863
2024-02-04T14:03:49,2420,42.8014,5.9826,13.2981,4.59903,2453.627,38.4862
2024-02-04T14:06:49,2420,42.8014,5.9826,13.2980,4.59905,2453.627,38.4865
2024-02-04T14:09:49,2420,42.8014,5.9826,13.2980,4.59905,2453.604,38.4865
2024-02-04T14:12:49,2420,42.8014,5.9826,13.2983,4.59903,2453.627,38.4860
2024-02-04T14:15:49,2420,42.8014,5.9826,13.2982,4.59903,2453.627,38.4862
2024-02-04T14:18:49,2420,42.8014,5.9826,13.2979,4.59903,2453.627,38.4864
2024-02-04T14:21:49,2420,42.8014,5.9826,13.2978,4.59904,2453.604,38.4866
2024-02-04T14:24:49,2420,42.8014,5.9826,13.2984,4.59904,2453.627,38.4860
2024-02-04T14:27:49,2420,42.8014,5.9826,13.2984,4.59904,2453.627,38.4860
2024-02-04T14:30:49,2420,42.8014,5.9826,13.2982,4.59905,2453.627,38.4863
2024-02-04T14:33:50,2420,42.8014,5.9826,13.2978,4.59903,2453.627,38.4865
2024-02-04T14:36:49,2420,42.8014,5.9826,13.2983,4.59903,2453.627,38.4860
2024-02-04T14:39:49,2420,42.8014,5.9826,13.2979,4.59903,2453.627,38.4863
2024-02-04T14:42:49,2420,42.8014,5.9826,13.2978,4.59901,2453.612,38.4863
2024-02-04T14:45:49,2420,42.8014,5.9826,13.2982,4.59903,2453.627,38.4862
2024-02-04T14:48:49,2420,42.8014,5.9826,13.2979,4.59903,2453.604,38.4863
2024-02-04T14:51:49,2420,42.8014,5.9826,13.2991,4.59902,2453.627,38.4851
2024-02-04T14:54:49,2420,42.8014,5.9826,13.2978,4.59903,2453.619,38.4865
2024-02-04T14:57:49,2420,42.8014,5.9826,13.2982,4.59903,2453.649,38.4861
2024-02-04T15:00:49,2420,42.8014,5.9826,13.2979,4.59903,2453.582,38.4864
2024-02-04T15:03:49,2420,42.8014,5.9826,13.2982,4.59904,2453.604,38.4862
2024-02-04T15:06:49,2420,42.8014,5.9826,13.2978,4.59903,2453.604,38.4865
2024-02-04T15:09:49,2420,42.8014,5.9826,13.2982,4.59902,2453.604,38.4860
2024-02-04T15:12:49,2420,42.8014,5.9826,13.2978,4.59904,2453.627,38.4866
2024-02-04T15:15:49,2420,42.8014,5.9826,13.2979,4.59901,2453.612,38.4862
2024-02-04T15:18:49,2420,42.8014,5.9826,13.2979,4.59903,2453.627,38.4864
2024-02-04T15:21:50,2420,42.8014,5.9826,13.2979,4.59902,2453.604,38.4863
2024-02-04T15:24:49,2420,42.8014,5.9826,13.2978,4.59903,2453.604,38.4865
2024-02-04T15:27:49,2420,42.8014,5.9826,13.2980,4.59903,2453.604,38.4863
2024-02-04T15:30:49,2420,42.8014,5.9826,13.2975,4.59903,2453.627,38.4867
2024-02-04T15:33:49,2420,42.8014,5.9826,13.2977,4.59902,2453.604,38.4865
2024-02-04T15:36:49,2420,42.8014,5.9826,13.2985,4.59903,2453.604,38.4859
2024-02-04T15:39:49,2420,42.8014,5.9826,13.2981,4.59903,2453.604,38.4862
2024-02-04T15:42:49,2420,42.8014,5.9826,13.2979,4.59903,2453.627,38.4864
2024-02-04T15:45:49,2420,42.8014,5.9826,13.2983,4.59904,2453.604,38.4861
2024-02-04T15:48:50,2420,42.8014,5.9826,13.2980,4.59902,2453.619,38.4862
2024-02-04T15:51:49,2420,42.8014,5.9826,13.2979,4.59901,2453.627,38.4862
2024-02-04T15:54:49,2420,42.8014,5.9826,13.2979,4.59901,2453.604,38.4862
2024-02-04T15:57:49,2420,42.8014,5.9826,13.2975,4.59902,2453.590,38.4867
2024-02-04T16:00:49,2420,42.8014,5.9826,13.2985,4.59902,2453.582,38.4858
2024-02-04T16:03:49,2420,42.8014,5.9826,13.2982,4.59902,2453.590,38.4861